Year,Month,Day,Hour,Minute,Value (Times are PST for temperature in C)
2017,05,02,00,00,7.70
2017,05,02,00,01,7.70
2017,05,02,00,02,7.70
2017,05,02,00,03,7.70
2017,05,02,00,04,7.70
2017,05,02,00,05,7.70
2017,05,02,00,06,7.70
2017,05,02,00,07,7.70
2017,05,02,00,08,7.70
2017,05,02,00,09,7.70
2017,05,02,00,10,7.70
2017,05,02,00,11,7.70
2017,05,02,00,12,7.70
2017,05,02,00,13,7.70
2017,05,02,00,14,7.60
2017,05,02,00,15,7.70
2017,05,02,00,16,7.70
2017,05,02,00,17,7.70
2017,05,02,00,18,7.70
2017,05,02,00,19,7.60
2017,05,02,00,20,7.60
2017,05,02,00,21,7.60
2017,05,02,00,22,7.60
2017,05,02,00,23,7.60
2017,05,02,00,24,7.60
2017,05,02,00,25,7.60
2017,05,02,00,26,7.70
2017,05,02,00,27,7.70
2017,05,02,00,28,7.70
2017,05,02,00,29,7.70
2017,05,02,00,30,7.70
2017,05,02,00,31,7.70
2017,05,02,00,32,7.80
2017,05,02,00,33,7.80
2017,05,02,00,34,7.80
2017,05,02,00,35,7.80
2017,05,02,00,36,7.80
2017,05,02,00,37,7.80
2017,05,02,00,38,7.70
2017,05,02,00,39,7.80
2017,05,02,00,40,7.80
2017,05,02,00,41,7.90
2017,05,02,00,42,7.90
2017,05,02,00,43,7.90
2017,05,02,00,44,7.90
2017,05,02,00,45,7.90
2017,05,02,00,46,8.00
2017,05,02,00,47,8.00
2017,05,02,00,48,8.10
2017,05,02,00,49,8.10
2017,05,02,00,50,8.10
2017,05,02,00,51,8.10
2017,05,02,00,52,8.10
2017,05,02,00,53,8.10
2017,05,02,00,54,8.10
2017,05,02,00,55,8.10
2017,05,02,00,56,8.00
2017,05,02,00,57,8.00
2017,05,02,00,58,8.00
2017,05,02,00,59,8.00
2017,05,02,01,00,8.00
2017,05,02,01,01,7.90
2017,05,02,01,02,8.00
2017,05,02,01,03,8.00
2017,05,02,01,04,8.00
2017,05,02,01,05,8.00
2017,05,02,01,06,8.00
2017,05,02,01,07,8.10
2017,05,02,01,08,8.10
2017,05,02,01,09,8.10
2017,05,02,01,10,8.10
2017,05,02,01,11,8.00
2017,05,02,01,12,8.00
2017,05,02,01,13,8.00
2017,05,02,01,14,8.00
2017,05,02,01,15,8.00
2017,05,02,01,16,8.00
2017,05,02,01,17,8.00
2017,05,02,01,18,7.90
2017,05,02,01,19,7.90
2017,05,02,01,20,7.90
2017,05,02,01,21,7.80
2017,05,02,01,22,7.80
2017,05,02,01,23,7.70
2017,05,02,01,24,7.60
2017,05,02,01,25,7.60
2017,05,02,01,26,7.60
2017,05,02,01,27,7.60
2017,05,02,01,28,7.50
2017,05,02,01,29,7.50
2017,05,02,01,30,7.50
2017,05,02,01,31,7.50
2017,05,02,01,32,7.40
2017,05,02,01,33,7.40
2017,05,02,01,34,7.40
2017,05,02,01,35,7.30
2017,05,02,01,36,7.30
2017,05,02,01,37,7.30
2017,05,02,01,38,7.30
2017,05,02,01,39,7.20
2017,05,02,01,40,7.20
2017,05,02,01,41,7.20
2017,05,02,01,42,7.20
2017,05,02,01,43,7.30
2017,05,02,01,44,7.30
2017,05,02,01,45,7.30
2017,05,02,01,46,7.30
2017,05,02,01,47,7.30
2017,05,02,01,48,7.30
2017,05,02,01,49,7.30
2017,05,02,01,50,7.30
2017,05,02,01,51,7.30
2017,05,02,01,52,7.30
2017,05,02,01,53,7.20
2017,05,02,01,54,7.20
2017,05,02,01,55,7.20
2017,05,02,01,56,7.20
2017,05,02,01,57,7.10
2017,05,02,01,58,7.10
2017,05,02,01,59,7.00
2017,05,02,02,00,7.00
2017,05,02,02,01,6.90
2017,05,02,02,02,6.90
2017,05,02,02,03,6.90
2017,05,02,02,04,6.90
2017,05,02,02,05,6.90
2017,05,02,02,06,6.90
2017,05,02,02,07,6.80
2017,05,02,02,08,6.80
2017,05,02,02,09,6.80
2017,05,02,02,10,6.80
2017,05,02,02,11,6.80
2017,05,02,02,12,6.70
2017,05,02,02,13,6.70
2017,05,02,02,14,6.70
2017,05,02,02,15,6.70
2017,05,02,02,16,6.60
2017,05,02,02,17,6.60
2017,05,02,02,18,6.60
2017,05,02,02,19,6.60
2017,05,02,02,20,6.60
2017,05,02,02,21,6.60
2017,05,02,02,22,6.60
2017,05,02,02,23,6.60
2017,05,02,02,24,6.60
2017,05,02,02,25,6.70
2017,05,02,02,26,6.80
2017,05,02,02,27,6.90
2017,05,02,02,28,7.00
2017,05,02,02,29,7.00
2017,05,02,02,30,7.10
2017,05,02,02,31,7.20
2017,05,02,02,32,7.20
2017,05,02,02,33,7.20
2017,05,02,02,34,7.20
2017,05,02,02,35,7.20
2017,05,02,02,36,7.20
2017,05,02,02,37,7.20
2017,05,02,02,38,7.20
2017,05,02,02,39,7.10
2017,05,02,02,40,7.10
2017,05,02,02,41,7.00
2017,05,02,02,42,6.90
2017,05,02,02,43,6.80
2017,05,02,02,44,6.80
2017,05,02,02,45,6.70
2017,05,02,02,46,6.70
2017,05,02,02,47,6.60
2017,05,02,02,48,6.60
2017,05,02,02,49,6.50
2017,05,02,02,50,6.40
2017,05,02,02,51,6.30
2017,05,02,02,52,6.30
2017,05,02,02,53,6.20
2017,05,02,02,54,6.20
2017,05,02,02,55,6.10
2017,05,02,02,56,6.10
2017,05,02,02,57,6.00
2017,05,02,02,58,5.90
2017,05,02,02,59,5.90
2017,05,02,03,00,5.80
2017,05,02,03,01,5.80
2017,05,02,03,02,5.80
2017,05,02,03,03,5.80
2017,05,02,03,04,5.80
2017,05,02,03,05,5.80
2017,05,02,03,06,5.80
2017,05,02,03,07,5.70
2017,05,02,03,08,5.70
2017,05,02,03,09,5.70
2017,05,02,03,10,5.70
2017,05,02,03,11,5.70
2017,05,02,03,12,5.70
2017,05,02,03,13,5.70
2017,05,02,03,14,5.70
2017,05,02,03,15,5.70
2017,05,02,03,16,5.70
2017,05,02,03,17,5.70
2017,05,02,03,18,5.70
2017,05,02,03,19,5.70
2017,05,02,03,20,5.70
2017,05,02,03,21,5.80
2017,05,02,03,22,5.80
2017,05,02,03,23,5.90
2017,05,02,03,24,5.90
2017,05,02,03,25,6.00
2017,05,02,03,26,6.00
2017,05,02,03,27,6.10
2017,05,02,03,28,6.10
2017,05,02,03,29,6.10
2017,05,02,03,30,6.10
2017,05,02,03,31,6.10
2017,05,02,03,32,6.00
2017,05,02,03,33,6.00
2017,05,02,03,34,5.90
2017,05,02,03,35,5.90
2017,05,02,03,36,5.80
2017,05,02,03,37,5.80
2017,05,02,03,38,5.80
2017,05,02,03,39,5.70
2017,05,02,03,40,5.70
2017,05,02,03,41,5.60
2017,05,02,03,42,5.60
2017,05,02,03,43,5.60
2017,05,02,03,44,5.50
2017,05,02,03,45,5.50
2017,05,02,03,46,5.40
2017,05,02,03,47,5.40
2017,05,02,03,48,5.40
2017,05,02,03,49,5.30
2017,05,02,03,50,5.30
2017,05,02,03,51,5.30
2017,05,02,03,52,5.30
2017,05,02,03,53,5.30
2017,05,02,03,54,5.30
2017,05,02,03,55,5.20
2017,05,02,03,56,5.20
2017,05,02,03,57,5.20
2017,05,02,03,58,5.20
2017,05,02,03,59,5.20
2017,05,02,04,00,5.20
2017,05,02,04,01,5.20
2017,05,02,04,02,5.20
2017,05,02,04,03,5.30
2017,05,02,04,04,5.20
2017,05,02,04,05,5.20
2017,05,02,04,06,5.20
2017,05,02,04,07,5.20
2017,05,02,04,08,5.20
2017,05,02,04,09,5.10
2017,05,02,04,10,5.10
2017,05,02,04,11,5.10
2017,05,02,04,12,5.10
2017,05,02,04,13,5.10
2017,05,02,04,14,5.10
2017,05,02,04,15,5.10
2017,05,02,04,16,5.00
2017,05,02,04,17,5.00
2017,05,02,04,18,4.90
2017,05,02,04,19,4.90
2017,05,02,04,20,4.80
2017,05,02,04,21,4.80
2017,05,02,04,22,4.80
2017,05,02,04,23,4.80
2017,05,02,04,24,4.80
2017,05,02,04,25,4.80
2017,05,02,04,26,4.90
2017,05,02,04,27,4.90
2017,05,02,04,28,4.90
2017,05,02,04,29,5.00
2017,05,02,04,30,5.10
2017,05,02,04,31,5.20
2017,05,02,04,32,5.20
2017,05,02,04,33,5.30
2017,05,02,04,34,5.30
2017,05,02,04,35,5.30
2017,05,02,04,36,5.30
2017,05,02,04,37,5.40
2017,05,02,04,38,5.40
2017,05,02,04,39,5.30
2017,05,02,04,40,5.30
2017,05,02,04,41,5.30
2017,05,02,04,42,5.40
2017,05,02,04,43,5.40
2017,05,02,04,44,5.40
2017,05,02,04,45,5.40
2017,05,02,04,46,5.40
2017,05,02,04,47,5.40
2017,05,02,04,48,5.40
2017,05,02,04,49,5.40
2017,05,02,04,50,5.40
2017,05,02,04,51,5.50
2017,05,02,04,52,5.50
2017,05,02,04,53,5.40
2017,05,02,04,54,5.40
2017,05,02,04,55,5.40
2017,05,02,04,56,5.40
2017,05,02,04,57,5.30
2017,05,02,04,58,5.30
2017,05,02,04,59,5.30
2017,05,02,05,00,5.30
2017,05,02,05,01,5.30
2017,05,02,05,02,5.30
2017,05,02,05,03,5.40
2017,05,02,05,04,5.50
2017,05,02,05,05,5.50
2017,05,02,05,06,5.60
2017,05,02,05,07,5.70
2017,05,02,05,08,5.80
2017,05,02,05,09,5.90
2017,05,02,05,10,6.00
2017,05,02,05,11,6.10
2017,05,02,05,12,6.20
2017,05,02,05,13,6.20
2017,05,02,05,14,6.30
2017,05,02,05,15,6.40
2017,05,02,05,16,6.50
2017,05,02,05,17,6.60
2017,05,02,05,18,6.60
2017,05,02,05,19,6.70
2017,05,02,05,20,6.80
2017,05,02,05,21,6.90
2017,05,02,05,22,6.90
2017,05,02,05,23,7.00
2017,05,02,05,24,7.00
2017,05,02,05,25,7.10
2017,05,02,05,26,7.10
2017,05,02,05,27,7.10
2017,05,02,05,28,7.10
2017,05,02,05,29,7.10
2017,05,02,05,30,7.20
2017,05,02,05,31,7.20
2017,05,02,05,32,7.20
2017,05,02,05,33,7.20
2017,05,02,05,34,7.20
2017,05,02,05,35,7.20
2017,05,02,05,36,7.20
2017,05,02,05,37,7.30
2017,05,02,05,38,7.30
2017,05,02,05,39,7.30
2017,05,02,05,40,7.30
2017,05,02,05,41,7.40
2017,05,02,05,42,7.40
2017,05,02,05,43,7.40
2017,05,02,05,44,7.40
2017,05,02,05,45,7.50
2017,05,02,05,46,7.50
2017,05,02,05,47,7.60
2017,05,02,05,48,7.60
2017,05,02,05,49,7.60
2017,05,02,05,50,7.60
2017,05,02,05,51,7.60
2017,05,02,05,52,7.60
2017,05,02,05,53,7.60
2017,05,02,05,54,7.60
2017,05,02,05,55,7.60
2017,05,02,05,56,7.60
2017,05,02,05,57,7.60
2017,05,02,05,58,7.60
2017,05,02,05,59,7.60
2017,05,02,06,00,7.60
2017,05,02,06,01,7.60
2017,05,02,06,02,7.60
2017,05,02,06,03,7.60
2017,05,02,06,04,7.60
2017,05,02,06,05,7.60
2017,05,02,06,06,7.70
2017,05,02,06,07,7.70
2017,05,02,06,08,7.70
2017,05,02,06,09,7.70
2017,05,02,06,10,7.70
2017,05,02,06,11,7.70
2017,05,02,06,12,7.70
2017,05,02,06,13,7.70
2017,05,02,06,14,7.70
2017,05,02,06,15,7.70
2017,05,02,06,16,7.70
2017,05,02,06,17,7.70
2017,05,02,06,18,7.70
2017,05,02,06,19,7.70
2017,05,02,06,20,7.70
2017,05,02,06,21,7.70
2017,05,02,06,22,7.70
2017,05,02,06,23,7.70
2017,05,02,06,24,7.70
2017,05,02,06,25,7.80
2017,05,02,06,26,7.80
2017,05,02,06,27,7.70
2017,05,02,06,28,7.70
2017,05,02,06,29,7.70
2017,05,02,06,30,7.80
2017,05,02,06,31,7.80
2017,05,02,06,32,7.80
2017,05,02,06,33,7.80
2017,05,02,06,34,7.80
2017,05,02,06,35,7.80
2017,05,02,06,36,7.80
2017,05,02,06,37,7.80
2017,05,02,06,38,7.90
2017,05,02,06,39,7.90
2017,05,02,06,40,7.90
2017,05,02,06,41,7.90
2017,05,02,06,42,7.90
2017,05,02,06,43,7.90
2017,05,02,06,44,7.90
2017,05,02,06,45,7.90
2017,05,02,06,46,7.90
2017,05,02,06,47,7.90
2017,05,02,06,48,7.90
2017,05,02,06,49,7.90
2017,05,02,06,50,8.00
2017,05,02,06,51,8.00
2017,05,02,06,52,8.00
2017,05,02,06,53,8.00
2017,05,02,06,54,8.00
2017,05,02,06,55,8.00
2017,05,02,06,56,8.00
2017,05,02,06,57,8.00
2017,05,02,06,58,8.10
2017,05,02,06,59,8.10
2017,05,02,07,00,8.10
2017,05,02,07,01,8.10
2017,05,02,07,02,8.10
2017,05,02,07,03,8.10
2017,05,02,07,04,8.10
2017,05,02,07,05,8.10
2017,05,02,07,06,8.10
2017,05,02,07,07,8.10
2017,05,02,07,08,8.10
2017,05,02,07,09,8.10
2017,05,02,07,10,8.10
2017,05,02,07,11,8.10
2017,05,02,07,12,8.10
2017,05,02,07,13,8.10
2017,05,02,07,14,8.10
2017,05,02,07,15,8.10
2017,05,02,07,16,8.10
2017,05,02,07,17,8.10
2017,05,02,07,18,8.10
2017,05,02,07,19,8.20
2017,05,02,07,20,8.20
2017,05,02,07,21,8.20
2017,05,02,07,22,8.20
2017,05,02,07,23,8.20
2017,05,02,07,24,8.20
2017,05,02,07,25,8.30
2017,05,02,07,26,8.30
2017,05,02,07,27,8.30
2017,05,02,07,28,8.40
2017,05,02,07,29,8.40
2017,05,02,07,30,8.50
2017,05,02,07,31,8.50
2017,05,02,07,32,8.60
2017,05,02,07,33,8.60
2017,05,02,07,34,8.70
2017,05,02,07,35,8.70
2017,05,02,07,36,8.70
2017,05,02,07,37,8.70
2017,05,02,07,38,8.80
2017,05,02,07,39,8.80
2017,05,02,07,40,8.80
2017,05,02,07,41,8.90
2017,05,02,07,42,8.90
2017,05,02,07,43,8.90
2017,05,02,07,44,8.90
2017,05,02,07,45,9.00
2017,05,02,07,46,9.00
2017,05,02,07,47,9.00
2017,05,02,07,48,9.00
2017,05,02,07,49,9.00
2017,05,02,07,50,9.00
2017,05,02,07,51,8.90
2017,05,02,07,52,9.00
2017,05,02,07,53,9.00
2017,05,02,07,54,9.10
2017,05,02,07,55,9.10
2017,05,02,07,56,9.10
2017,05,02,07,57,9.20
2017,05,02,07,58,9.20
2017,05,02,07,59,9.30
2017,05,02,08,00,9.30
2017,05,02,08,01,9.30
2017,05,02,08,02,9.30
2017,05,02,08,03,9.30
2017,05,02,08,04,9.30
2017,05,02,08,05,9.30
2017,05,02,08,06,9.40
2017,05,02,08,07,9.40
2017,05,02,08,08,9.40
2017,05,02,08,09,9.50
2017,05,02,08,10,9.60
2017,05,02,08,11,9.60
2017,05,02,08,12,9.60
2017,05,02,08,13,9.60
2017,05,02,08,14,9.60
2017,05,02,08,15,9.60
2017,05,02,08,16,9.70
2017,05,02,08,17,9.70
2017,05,02,08,18,9.60
2017,05,02,08,19,9.60
2017,05,02,08,20,9.60
2017,05,02,08,21,9.60
2017,05,02,08,22,9.60
2017,05,02,08,23,9.60
2017,05,02,08,24,9.60
2017,05,02,08,25,9.60
2017,05,02,08,26,9.60
2017,05,02,08,27,9.70
2017,05,02,08,28,9.70
2017,05,02,08,29,9.70
2017,05,02,08,30,9.60
2017,05,02,08,31,9.70
2017,05,02,08,32,9.70
2017,05,02,08,33,9.80
2017,05,02,08,34,9.90
2017,05,02,08,35,9.90
2017,05,02,08,36,10.00
2017,05,02,08,37,10.00
2017,05,02,08,38,10.00
2017,05,02,08,39,9.90
2017,05,02,08,40,10.00
2017,05,02,08,41,10.10
2017,05,02,08,42,10.10
2017,05,02,08,43,10.20
2017,05,02,08,44,10.30
2017,05,02,08,45,10.30
2017,05,02,08,46,10.30
2017,05,02,08,47,10.40
2017,05,02,08,48,10.40
2017,05,02,08,49,10.40
2017,05,02,08,50,10.30
2017,05,02,08,51,10.10
2017,05,02,08,52,10.10
2017,05,02,08,53,10.10
2017,05,02,08,54,10.10
2017,05,02,08,55,10.00
2017,05,02,08,56,10.10
2017,05,02,08,57,10.20
2017,05,02,08,58,10.30
2017,05,02,08,59,10.30
2017,05,02,09,00,10.20
2017,05,02,09,01,10.20
2017,05,02,09,02,10.20
2017,05,02,09,03,10.30
2017,05,02,09,04,10.30
2017,05,02,09,05,10.40
2017,05,02,09,06,10.40
2017,05,02,09,07,10.50
2017,05,02,09,08,10.60
2017,05,02,09,09,10.60
2017,05,02,09,10,10.60
2017,05,02,09,11,10.60
2017,05,02,09,12,10.50
2017,05,02,09,13,10.50
2017,05,02,09,14,10.50
2017,05,02,09,15,10.50
2017,05,02,09,16,10.40
2017,05,02,09,17,10.30
2017,05,02,09,18,10.30
2017,05,02,09,19,10.30
2017,05,02,09,20,10.30
2017,05,02,09,21,10.20
2017,05,02,09,22,10.20
2017,05,02,09,23,10.30
2017,05,02,09,24,10.40
2017,05,02,09,25,10.50
2017,05,02,09,26,10.50
2017,05,02,09,27,10.50
2017,05,02,09,28,10.50
2017,05,02,09,29,10.60
2017,05,02,09,30,10.60
2017,05,02,09,31,10.70
2017,05,02,09,32,10.80
2017,05,02,09,33,10.90
2017,05,02,09,34,11.00
2017,05,02,09,35,11.10
2017,05,02,09,36,11.00
2017,05,02,09,37,10.80
2017,05,02,09,38,10.70
2017,05,02,09,39,10.70
2017,05,02,09,40,10.70
2017,05,02,09,41,10.70
2017,05,02,09,42,10.60
2017,05,02,09,43,10.60
2017,05,02,09,44,10.60
2017,05,02,09,45,10.70
2017,05,02,09,46,10.70
2017,05,02,09,47,10.70
2017,05,02,09,48,10.70
2017,05,02,09,49,10.70
2017,05,02,09,50,10.70
2017,05,02,09,51,10.70
2017,05,02,09,52,10.60
2017,05,02,09,53,10.60
2017,05,02,09,54,10.40
2017,05,02,09,55,10.40
2017,05,02,09,56,10.30
2017,05,02,09,57,10.20
2017,05,02,09,58,10.20
2017,05,02,09,59,10.30
2017,05,02,10,00,10.30
2017,05,02,10,01,10.30
2017,05,02,10,02,10.40
2017,05,02,10,03,10.40
2017,05,02,10,04,10.40
2017,05,02,10,05,10.40
2017,05,02,10,06,10.40
2017,05,02,10,07,10.30
2017,05,02,10,08,10.30
2017,05,02,10,09,10.30
2017,05,02,10,10,10.30
2017,05,02,10,11,10.30
2017,05,02,10,12,10.30
2017,05,02,10,13,10.30
2017,05,02,10,14,10.30
2017,05,02,10,15,10.30
2017,05,02,10,16,10.30
2017,05,02,10,17,10.40
2017,05,02,10,18,10.40
2017,05,02,10,19,10.40
2017,05,02,10,20,10.30
2017,05,02,10,21,10.20
2017,05,02,10,22,10.20
2017,05,02,10,23,10.30
2017,05,02,10,24,10.30
2017,05,02,10,25,10.40
2017,05,02,10,26,10.40
2017,05,02,10,27,10.40
2017,05,02,10,28,10.40
2017,05,02,10,29,10.40
2017,05,02,10,30,10.40
2017,05,02,10,31,10.40
2017,05,02,10,32,10.30
2017,05,02,10,33,10.30
2017,05,02,10,34,10.40
2017,05,02,10,35,10.40
2017,05,02,10,36,10.40
2017,05,02,10,37,10.40
2017,05,02,10,38,10.40
2017,05,02,10,39,10.50
2017,05,02,10,40,10.50
2017,05,02,10,41,10.60
2017,05,02,10,42,10.60
2017,05,02,10,43,10.60
2017,05,02,10,44,10.70
2017,05,02,10,45,10.60
2017,05,02,10,46,10.60
2017,05,02,10,47,10.60
2017,05,02,10,48,10.60
2017,05,02,10,49,10.60
2017,05,02,10,50,10.60
2017,05,02,10,51,10.70
2017,05,02,10,52,10.70
2017,05,02,10,53,10.80
2017,05,02,10,54,10.90
2017,05,02,10,55,10.90
2017,05,02,10,56,10.90
2017,05,02,10,57,11.00
2017,05,02,10,58,11.00
2017,05,02,10,59,10.90
2017,05,02,11,00,10.90
2017,05,02,11,01,10.80
2017,05,02,11,02,10.80
2017,05,02,11,03,10.80
2017,05,02,11,04,10.90
2017,05,02,11,05,10.90
2017,05,02,11,06,11.00
2017,05,02,11,07,11.10
2017,05,02,11,08,11.30
2017,05,02,11,09,11.40
2017,05,02,11,10,11.50
2017,05,02,11,11,11.70
2017,05,02,11,12,11.70
2017,05,02,11,13,11.70
2017,05,02,11,14,11.80
2017,05,02,11,15,11.80
2017,05,02,11,16,11.70
2017,05,02,11,17,11.70
2017,05,02,11,18,11.80
2017,05,02,11,19,11.80
2017,05,02,11,20,11.80
2017,05,02,11,21,11.70
2017,05,02,11,22,11.80
2017,05,02,11,23,11.90
2017,05,02,11,24,12.00
2017,05,02,11,25,12.20
2017,05,02,11,26,12.30
2017,05,02,11,27,12.40
2017,05,02,11,28,12.40
2017,05,02,11,29,12.40
2017,05,02,11,30,12.40
2017,05,02,11,31,12.50
2017,05,02,11,32,12.40
2017,05,02,11,33,12.30
2017,05,02,11,34,12.30
2017,05,02,11,35,12.30
2017,05,02,11,36,12.20
2017,05,02,11,37,12.20
2017,05,02,11,38,12.20
2017,05,02,11,39,12.10
2017,05,02,11,40,12.10
2017,05,02,11,41,12.10
2017,05,02,11,42,12.10
2017,05,02,11,43,12.10
2017,05,02,11,44,12.10
2017,05,02,11,45,12.20
2017,05,02,11,46,12.30
2017,05,02,11,47,12.30
2017,05,02,11,48,12.20
2017,05,02,11,49,12.20
2017,05,02,11,50,12.30
2017,05,02,11,51,12.30
2017,05,02,11,52,12.20
2017,05,02,11,53,12.10
2017,05,02,11,54,12.00
2017,05,02,11,55,12.00
2017,05,02,11,56,12.00
2017,05,02,11,57,12.00
2017,05,02,11,58,12.00
2017,05,02,11,59,11.90
2017,05,02,12,00,11.90
2017,05,02,12,01,11.80
2017,05,02,12,02,11.90
2017,05,02,12,03,11.80
2017,05,02,12,04,11.80
2017,05,02,12,05,11.90
2017,05,02,12,06,12.00
2017,05,02,12,07,12.10
2017,05,02,12,08,12.10
2017,05,02,12,09,12.10
2017,05,02,12,10,12.00
2017,05,02,12,11,12.00
2017,05,02,12,12,12.10
2017,05,02,12,13,12.10
2017,05,02,12,14,12.20
2017,05,02,12,15,12.20
2017,05,02,12,16,12.20
2017,05,02,12,17,12.10
2017,05,02,12,18,12.20
2017,05,02,12,19,12.20
2017,05,02,12,20,12.20
2017,05,02,12,21,12.20
2017,05,02,12,22,12.30
2017,05,02,12,23,12.20
2017,05,02,12,24,12.20
2017,05,02,12,25,12.30
2017,05,02,12,26,12.20
2017,05,02,12,27,12.20
2017,05,02,12,28,12.20
2017,05,02,12,29,12.30
2017,05,02,12,30,12.20
2017,05,02,12,31,12.20
2017,05,02,12,32,12.10
2017,05,02,12,33,12.00
2017,05,02,12,34,12.00
2017,05,02,12,35,12.10
2017,05,02,12,36,12.10
2017,05,02,12,37,12.10
2017,05,02,12,38,12.00
2017,05,02,12,39,12.10
2017,05,02,12,40,12.00
2017,05,02,12,41,12.00
2017,05,02,12,42,12.00
2017,05,02,12,43,12.10
2017,05,02,12,44,12.10
2017,05,02,12,45,12.20
2017,05,02,12,46,12.20
2017,05,02,12,47,12.20
2017,05,02,12,48,12.20
2017,05,02,12,49,12.30
2017,05,02,12,50,12.40
2017,05,02,12,51,12.40
2017,05,02,12,52,12.40
2017,05,02,12,53,12.50
2017,05,02,12,54,12.40
2017,05,02,12,55,12.40
2017,05,02,12,56,12.30
2017,05,02,12,57,12.20
2017,05,02,12,58,12.20
2017,05,02,12,59,12.20
2017,05,02,13,00,12.20
2017,05,02,13,01,12.30
2017,05,02,13,02,12.30
2017,05,02,13,03,12.30
2017,05,02,13,04,12.20
2017,05,02,13,05,12.20
2017,05,02,13,06,12.20
2017,05,02,13,07,12.30
2017,05,02,13,08,12.30
2017,05,02,13,09,12.30
2017,05,02,13,10,12.30
2017,05,02,13,11,12.40
2017,05,02,13,12,12.40
2017,05,02,13,13,12.50
2017,05,02,13,14,12.50
2017,05,02,13,15,12.50
2017,05,02,13,16,12.50
2017,05,02,13,17,12.40
2017,05,02,13,18,12.40
2017,05,02,13,19,12.30
2017,05,02,13,20,12.30
2017,05,02,13,21,12.30
2017,05,02,13,22,12.30
2017,05,02,13,23,12.30
2017,05,02,13,24,12.30
2017,05,02,13,25,12.30
2017,05,02,13,26,12.30
2017,05,02,13,27,12.30
2017,05,02,13,28,12.30
2017,05,02,13,29,12.40
2017,05,02,13,30,12.40
2017,05,02,13,31,12.40
2017,05,02,13,32,12.40
2017,05,02,13,33,12.40
2017,05,02,13,34,12.40
2017,05,02,13,35,12.40
2017,05,02,13,36,12.50
2017,05,02,13,37,12.50
2017,05,02,13,38,12.70
2017,05,02,13,39,12.70
2017,05,02,13,40,12.70
2017,05,02,13,41,12.70
2017,05,02,13,42,12.70
2017,05,02,13,43,12.60
2017,05,02,13,44,12.60
2017,05,02,13,45,12.60
2017,05,02,13,46,12.70
2017,05,02,13,47,12.70
2017,05,02,13,48,12.80
2017,05,02,13,49,12.80
2017,05,02,13,50,12.70
2017,05,02,13,51,12.60
2017,05,02,13,52,12.60
2017,05,02,13,53,12.60
2017,05,02,13,54,12.60
2017,05,02,13,55,12.60
2017,05,02,13,56,12.60
2017,05,02,13,57,12.60
2017,05,02,13,58,12.60
2017,05,02,13,59,12.60
2017,05,02,14,00,12.60
2017,05,02,14,01,12.60
2017,05,02,14,02,12.70
2017,05,02,14,03,12.70
2017,05,02,14,04,12.70
2017,05,02,14,05,12.70
2017,05,02,14,06,12.70
2017,05,02,14,07,12.70
2017,05,02,14,08,12.80
2017,05,02,14,09,12.90
2017,05,02,14,10,12.90
2017,05,02,14,11,12.90
2017,05,02,14,12,12.90
2017,05,02,14,13,12.90
2017,05,02,14,14,12.80
2017,05,02,14,15,12.90
2017,05,02,14,16,12.90
2017,05,02,14,17,12.90
2017,05,02,14,18,12.90
2017,05,02,14,19,12.90
2017,05,02,14,20,12.90
2017,05,02,14,21,12.90
2017,05,02,14,22,12.90
2017,05,02,14,23,12.90
2017,05,02,14,24,12.80
2017,05,02,14,25,12.80
2017,05,02,14,26,12.80
2017,05,02,14,27,12.80
2017,05,02,14,28,12.80
2017,05,02,14,29,12.80
2017,05,02,14,30,12.90
2017,05,02,14,31,12.90
2017,05,02,14,32,12.80
2017,05,02,14,33,12.80
2017,05,02,14,34,12.80
2017,05,02,14,35,12.90
2017,05,02,14,36,12.90
2017,05,02,14,37,12.90
2017,05,02,14,38,12.90
2017,05,02,14,39,13.00
2017,05,02,14,40,13.00
2017,05,02,14,41,13.00
2017,05,02,14,42,12.90
2017,05,02,14,43,12.90
2017,05,02,14,44,12.80
2017,05,02,14,45,12.80
2017,05,02,14,46,12.90
2017,05,02,14,47,13.00
2017,05,02,14,48,13.10
2017,05,02,14,49,13.10
2017,05,02,14,50,13.10
2017,05,02,14,51,13.10
2017,05,02,14,52,13.10
2017,05,02,14,53,13.10
2017,05,02,14,54,13.00
2017,05,02,14,55,13.00
2017,05,02,14,56,12.90
2017,05,02,14,57,12.90
2017,05,02,14,58,12.90
2017,05,02,14,59,12.90
2017,05,02,15,00,12.80
2017,05,02,15,01,12.90
2017,05,02,15,02,12.90
2017,05,02,15,03,13.00
2017,05,02,15,04,13.00
2017,05,02,15,05,13.00
2017,05,02,15,06,13.00
2017,05,02,15,07,13.10
2017,05,02,15,08,13.00
2017,05,02,15,09,13.00
2017,05,02,15,10,13.00
2017,05,02,15,11,13.00
2017,05,02,15,12,13.00
2017,05,02,15,13,12.90
2017,05,02,15,14,13.00
2017,05,02,15,15,13.00
2017,05,02,15,16,13.00
2017,05,02,15,17,13.00
2017,05,02,15,18,13.10
2017,05,02,15,19,13.20
2017,05,02,15,20,13.20
2017,05,02,15,21,13.20
2017,05,02,15,22,13.20
2017,05,02,15,23,13.20
2017,05,02,15,24,13.20
2017,05,02,15,25,13.20
2017,05,02,15,26,13.30
2017,05,02,15,27,13.30
2017,05,02,15,28,13.30
2017,05,02,15,29,13.30
2017,05,02,15,30,13.30
2017,05,02,15,31,13.30
2017,05,02,15,32,13.30
2017,05,02,15,33,13.20
2017,05,02,15,34,13.20
2017,05,02,15,35,13.20
2017,05,02,15,36,13.20
2017,05,02,15,37,13.20
2017,05,02,15,38,13.20
2017,05,02,15,39,13.20
2017,05,02,15,40,13.20
2017,05,02,15,41,13.20
2017,05,02,15,42,13.20
2017,05,02,15,43,13.20
2017,05,02,15,44,13.20
2017,05,02,15,45,13.20
2017,05,02,15,46,13.20
2017,05,02,15,47,13.30
2017,05,02,15,48,13.30
2017,05,02,15,49,13.30
2017,05,02,15,50,13.30
2017,05,02,15,51,13.40
2017,05,02,15,52,13.40
2017,05,02,15,53,13.40
2017,05,02,15,54,13.30
2017,05,02,15,55,13.30
2017,05,02,15,56,13.40
2017,05,02,15,57,13.40
2017,05,02,15,58,13.30
2017,05,02,15,59,13.30
2017,05,02,16,00,13.30
2017,05,02,16,01,13.30
2017,05,02,16,02,13.30
2017,05,02,16,03,13.30
2017,05,02,16,04,13.30
2017,05,02,16,05,13.30
2017,05,02,16,06,13.30
2017,05,02,16,07,13.30
2017,05,02,16,08,13.40
2017,05,02,16,09,13.50
2017,05,02,16,10,13.50
2017,05,02,16,11,13.50
2017,05,02,16,12,13.60
2017,05,02,16,13,13.60
2017,05,02,16,14,13.60
2017,05,02,16,15,13.50
2017,05,02,16,16,13.50
2017,05,02,16,17,13.40
2017,05,02,16,18,13.30
2017,05,02,16,19,13.30
2017,05,02,16,20,13.20
2017,05,02,16,21,13.10
2017,05,02,16,22,13.10
2017,05,02,16,23,13.10
2017,05,02,16,24,13.10
2017,05,02,16,25,13.10
2017,05,02,16,26,13.10
2017,05,02,16,27,13.10
2017,05,02,16,28,13.10
2017,05,02,16,29,13.10
2017,05,02,16,30,13.10
2017,05,02,16,31,13.10
2017,05,02,16,32,13.10
2017,05,02,16,33,13.10
2017,05,02,16,34,13.10
2017,05,02,16,35,13.10
2017,05,02,16,36,13.20
2017,05,02,16,37,13.20
2017,05,02,16,38,13.20
2017,05,02,16,39,13.20
2017,05,02,16,40,13.20
2017,05,02,16,41,13.20
2017,05,02,16,42,13.20
2017,05,02,16,43,13.20
2017,05,02,16,44,13.20
2017,05,02,16,45,13.20
2017,05,02,16,46,13.20
2017,05,02,16,47,13.20
2017,05,02,16,48,13.20
2017,05,02,16,49,13.20
2017,05,02,16,50,13.20
2017,05,02,16,51,13.20
2017,05,02,16,52,13.20
2017,05,02,16,53,13.20
2017,05,02,16,54,13.30
2017,05,02,16,55,13.30
2017,05,02,16,56,13.30
2017,05,02,16,57,13.30
2017,05,02,16,58,13.30
2017,05,02,16,59,13.30
2017,05,02,17,00,13.30
2017,05,02,17,01,13.30
2017,05,02,17,02,13.30
2017,05,02,17,03,13.30
2017,05,02,17,04,13.30
2017,05,02,17,05,13.20
2017,05,02,17,06,13.20
2017,05,02,17,07,13.20
2017,05,02,17,08,13.20
2017,05,02,17,09,13.20
2017,05,02,17,10,13.20
2017,05,02,17,11,13.20
2017,05,02,17,12,13.20
2017,05,02,17,13,13.20
2017,05,02,17,14,13.20
2017,05,02,17,15,13.20
2017,05,02,17,16,13.20
2017,05,02,17,17,13.30
2017,05,02,17,18,13.30
2017,05,02,17,19,13.20
2017,05,02,17,20,13.20
2017,05,02,17,21,13.20
2017,05,02,17,22,13.20
2017,05,02,17,23,13.20
2017,05,02,17,24,13.20
2017,05,02,17,25,13.20
2017,05,02,17,26,13.20
2017,05,02,17,27,13.20
2017,05,02,17,28,13.20
2017,05,02,17,29,13.20
2017,05,02,17,30,13.20
2017,05,02,17,31,13.20
2017,05,02,17,32,13.20
2017,05,02,17,33,13.20
2017,05,02,17,34,13.20
2017,05,02,17,35,13.20
2017,05,02,17,36,13.20
2017,05,02,17,37,13.20
2017,05,02,17,38,13.20
2017,05,02,17,39,13.20
2017,05,02,17,40,13.20
2017,05,02,17,41,13.10